Content
SEND FEEDBACK

Daily
Averages
Monthly
Summary
United States of America

HARDINSBURG, KENTUCKY


Home > North America > United States > Kentucky
Elevation: 73 feet     Latitude: 37 46N     Longitude: 086 26W

WEATHER
 
SELECT A DAY
Number of Records: 194,835;   Date Range: 1/1/95 - 7/29/14
 
SHARE

PRINT THIS DATA

[ ← Previous Day ]
WEATHER ALMANAC - JANUARY 31, 2013
[ Next Day → ]
[ °C ]   °F
Weather ElementAverageHighLow
Temperature28.6 °F35.4 °F (4:55 pm)17.6 °F (11:59 pm)
Dewpoint20.4 °F30.2 °F (9:25 pm)8.6 °F (11:59 pm)
Humidity71.8 %93 % (8:55 pm)56 % (2:55 pm)
Barometer29.95 in30.17 in (11:59 pm)29.76 in (12:25 am)
Wind Speed15 mph25.3 mph (12:57 am)
Wind Gust38 mph (9:38 pm)
Weather ElementAverage
Visibility7.5 mi
Wind DirectionWSW (258.8 °)

Weather ElementTotal
Precipitation0.01 in
Heating Degree Days38.5 (Base 65)
Averaged from 56 records on January 31, 2013
WEATHER CONDITIONS BREAKOUT
WIND DIRECTION BREAKOUT
WEATHER BY HOUR - JANUARY 31, 2013
[ °C ]   °F
Local TimeTemperatureDewpointHumidityBarometerVisibilityWind DirectionWind SpeedGust SpeedPrecipitationEventsConditions
12:25 AM32.0 °F24.8 °F75 %29.76 in10.0 miWest (260°)20.7 mph27.6 mphOvercast
12:40 AM32.0 °F24.8 °F75 %29.77 in10.0 miWest (270°)18.4 mph29.9 mphOvercast
12:55 AM31.3 °F23.4 °F72 %29.78 in10.0 miWest (260°)21.9 mph33.4 mph0.00 inOvercast
12:57 AM32.0 °F23.0 °F69 %29.78 in10.0 miWest (270°)25.3 mph33.4 mphOvercast
1:55 AM30.0 °F20.5 °F68 %29.82 in10.0 miWest (260°)16.1 mph28.8 mph0.00 inOvercast
1:58 AM30.2 °F21.2 °F69 %29.83 in10.0 miWest (260°)15.0 mph27.6 mphOvercast
1:59 AM30.2 °F19.4 °F64 %29.83 in10.0 miWest (260°)17.3 mph27.6 mphOvercast
2:51 AM28.4 °F17.6 °F64 %29.85 in10.0 miWest (260°)19.6 mph28.8 mphSnowLight Snow
2:55 AM29.1 °F18.0 °F63 %29.86 in10.0 miWest (260°)16.1 mph26.5 mph0.00 inSnowLight Snow
3:03 AM28.4 °F19.4 °F69 %29.86 in10.0 miWSW (250°)20.7 mph29.9 mphOvercast
3:41 AM28.4 °F19.4 °F69 %29.86 in10.0 miWest (270°)16.1 mph21.9 mphSnowLight Snow
3:52 AM28.4 °F19.4 °F69 %29.86 in10.0 miWest (260°)15.0 mph19.6 mphSnowLight Snow
3:55 AM29.1 °F19.6 °F68 %29.87 in10.0 miWest (260°)16.1 mph21.9 mph0.00 inSnowLight Snow
4:25 AM28.4 °F17.6 °F64 %29.86 in10.0 miWest (260°)19.6 mph25.3 mphOvercast
4:55 AM28.9 °F17.8 °F63 %29.87 in10.0 miWest (270°)11.5 mph20.7 mph0.00 inOvercast
5:01 AM28.4 °F17.6 °F64 %29.88 in10.0 miWest (260°)15.0 mph21.9 mphSnowLight Snow
5:55 AM27.9 °F19.0 °F69 %29.89 in10.0 miWSW (250°)15.0 mph21.9 mph0.00 inSnowLight Snow
6:18 AM28.4 °F19.4 °F69 %29.91 in10.0 miWest (260°)12.7 mphOvercast
6:33 AM28.4 °F19.4 °F69 %29.91 in10.0 miWest (260°)13.8 mph19.6 mphSnowLight Snow
6:55 AM27.9 °F19.4 °F71 %29.92 in7.0 miWest (270°)12.7 mph0.00 inSnowLight Snow
7:55 AM27.3 °F18.5 °F69 %29.96 in7.0 miWest (270°)13.8 mph0.00 inSnowLight Snow
8:50 AM26.6 °F19.4 °F74 %29.96 in2.0 miWSW (250°)13.8 mphSnowLight Snow
8:55 AM27.3 °F19.0 °F71 %29.99 in1.5 miWSW (250°)15.0 mph20.7 mph0.00 inSnowLight Snow
8:59 AM26.6 °F19.4 °F74 %29.97 in1.0 miWSW (240°)9.2 mph20.7 mphSnowLight Snow
9:13 AM26.6 °F23.0 °F86 %29.97 in5.0 miWSW (240°)11.5 mphSnowLight Snow
9:34 AM26.6 °F21.2 °F80 %29.97 in2.5 miSW (230°)8.1 mphSnowLight Snow
9:39 AM26.6 °F21.2 °F80 %29.98 in1.8 miWSW (240°)9.2 mphSnowLight Snow
9:55 AM27.1 °F22.5 °F83 %30.01 in2.5 miWSW (250°)10.4 mph0.00 inSnowLight Snow
10:12 AM26.6 °F23.0 °F86 %29.98 in1.8 miSW (230°)10.4 mphSnowLight Snow
10:51 AM26.6 °F23.0 °F86 %29.99 in2.0 miWSW (240°)9.2 mphSnowLight Snow
10:55 AM27.5 °F23.9 °F86 %30.03 in2.0 miSW (230°)11.5 mph0.00 inSnowLight Snow
11:13 AM28.4 °F24.8 °F86 %30.00 in5.0 miSW (220°)8.1 mphSnowLight Snow
11:55 AM30.2 °F22.6 °F73 %30.02 in10.0 miSW (230°)11.5 mph0.00 inSnowLight Snow
12:13 PM32.0 °F21.2 °F64 %29.99 in10.0 miWSW (240°)17.3 mph26.5 mphMostly Cloudy
12:51 PM32.0 °F19.4 °F60 %29.99 in10.0 miWSW (250°)18.4 mph25.3 mphSnowLight Snow
12:55 PM31.8 °F20.3 °F62 %30.01 in10.0 miWSW (250°)15.0 mph25.3 mph0.00 inSnowLight Snow
1:07 PM32.0 °F21.2 °F64 %29.97 in10.0 miWSW (240°)16.1 mph31.1 mphMostly Cloudy
1:55 PM32.7 °F20.1 °F60 %29.99 in10.0 miWSW (240°)20.7 mph31.1 mphMostly Cloudy
2:55 PM34.7 °F20.5 °F56 %29.99 in10.0 miWSW (240°)15.0 mph25.3 mphScattered Clouds
3:55 PM34.5 °F20.1 °F56 %29.97 in10.0 miSW (230°)18.4 mph23.0 mphMostly Cloudy
4:55 PM35.4 °F21.0 °F56 %29.98 in10.0 miWest (260°)11.5 mphOvercast
5:55 PM34.7 °F21.4 °F58 %29.98 in10.0 miWSW (250°)11.5 mphMostly Cloudy
6:55 PM34.2 °F22.5 °F62 %29.99 in10.0 miWSW (250°)8.1 mphMostly Cloudy
7:01 PM33.8 °F23.0 °F65 %29.96 in7.0 miWSW (240°)11.5 mphSnowLight Snow
7:55 PM31.6 °F27.9 °F86 %29.99 in3.0 miWest (280°)8.1 mph0.00 inSnowLight Snow
8:55 PM31.1 °F29.3 °F93 %29.98 in3.0 miWSW (240°)10.4 mph0.00 inSnowLight Snow
9:25 PM32.0 °F30.2 °F93 %29.96 in0.2 miWest (260°)16.1 mph23.0 mphSnowSnow
9:38 PM28.4 °F24.8 °F86 %30.00 in2.0 miWNW (300°)21.9 mph38.0 mphSnowLight Snow
9:50 PM24.8 °F21.2 °F86 %30.02 in3.0 miWNW (300°)19.6 mph34.5 mphSnowLight Snow
9:55 PM25.0 °F20.7 °F84 %30.06 in5.0 miNW (310°)18.4 mph34.5 mph0.01 inSnowLight Snow
10:55 PM22.1 °F17.1 °F81 %30.11 in4.0 miWNW (290°)15.0 mph23.0 mph0.00 inSnowLight Snow
11:20 PM21.2 °F14.0 °F74 %30.12 in10.0 miWNW (300°)17.3 mph29.9 mphOvercast
11:25 PM21.2 °F12.2 °F68 %30.13 in10.0 miWNW (300°)17.3 mph28.8 mphSnowLight Snow
11:40 PM19.4 °F12.2 °F74 %30.14 in10.0 miWNW (290°)13.8 mph26.5 mphMostly Cloudy
11:55 PM18.7 °F9.1 °F66 %30.16 in10.0 miWNW (290°)19.6 mph27.6 mph0.00 inMostly Cloudy
11:59 PM17.6 °F8.6 °F68 %30.17 in10.0 miWNW (290°)19.6 mph38.0 mphScattered Clouds
Hourly data recorded from KFTK, located miles away from Hardinsburg, Kentucky







STORIES FROM OUR PARTNERS